Regional Weather Roundup
Issued by NWS

Home | Current Version | Previous Version | Text Only | Print | Product List | Glossary On
Versions: 1 2 3 4 5 6 7 8 9 10 11 12 13 14 15 16 17 18 19 20 21 22 23 24 25 26 27 28 29 30 31 32 33 34 35 36 37 38 39 40 41 42 43 44 45 46 47 48 49 50
000
ASUS43 KDMX 230001
RWRIA

WEATHER ROUNDUP FOR IOWA
NATIONAL WEATHER SERVICE DES MOINES IA
700 PM CDT TUE MAY 22 2018

NOTE: "FAIR" INDICATES FEW OR NO CLOUDS BELOW 12,000 FEET WITH NO
SIGNIFICANT WEATHER AND/OR OBSTRUCTIONS TO VISIBILITY.

* - THESE STATIONS ARE NOT NWS STATIONS...THUS NOT UNDER NWS
QUALITY CONTROL.  THEY ALSO DO NOT REPORT WEATHER SUCH
AS PRECIPITATION OR FOG.

IAZ001>003-012>014-020>022-031>034-043>046-230100-
   NORTHWEST IOWA

CITY           SKY/WX    TMP DP  RH WIND       PRES   REMARKS
CARROLL *      CLOUDY   N/A N/A N/A S12       29.98S
CHEROKEE *     CLOUDY    77  62  60 SE9       29.96S
DENISON *      CLOUDY    75  64  69 SE10G17   29.98S
LE MARS *      MOSUNNY   77  64  65 SE10      29.94S
ORANGE CITY *  MOSUNNY   79  64  61 SE7       29.96S HX  81
SHELDON *      CLOUDY    77  64  65 S9        29.95S
SIOUX CITY     CLOUDY    78  66  66 SE12      29.92F HX  80
6HR MIN TEMP:  73; 6HR MAX TEMP:  79;

SPENCER        MOSUNNY   79  62  56 S10       29.97F HX  80
6HR MIN TEMP:  76; 6HR MAX TEMP:  81;

STORM LAKE *   CLOUDY    77  61  57 SE12      29.98S
$$

IAZ055>058-069>071-079>083-090>094-230100-
   SOUTHWEST IOWA

CITY           SKY/WX    TMP DP  RH WIND       PRES   REMARKS
ATLANTIC *     MOSUNNY   79  68  69 SE7       29.97S HX  81
AUDUBON *      CLOUDY    73  66  78 SE8       30.00S
CLARINDA *     SUNNY     84  61  45 S9        29.97F HX  84
COUNCIL BLFS * CLOUDY    81  68  65 SE15      29.93F HX  83
CRESTON *      MOSUNNY   79  66  65 E8        30.01R HX  81
HARLAN  *      CLOUDY    77  66  69 SE9       29.99F
LAMONI         MOSUNNY   80  64  58 SE5       29.99S HX  82
6HR MIN TEMP:  74; 6HR MAX TEMP:  81;

RED OAK *      MOSUNNY   82  63  51 SE13      29.95F HX  83
SHENANDOAH *   SUNNY     86  63  45 S10       29.94F HX  87
$$

IAZ047>049-059>061-072>074-084-230100-
   CENTRAL IOWA

CITY           SKY/WX    TMP DP  RH WIND       PRES   REMARKS
AMES           CLOUDY    75  63  66 S8        29.99F
6HR MIN TEMP:  73; 6HR MAX TEMP:  78;

ANKENY *       CLOUDY    75  63  64 S3        30.00F
BOONE *        CLOUDY    77  63  61 S9        29.99S
CHARITON *     MOSUNNY   77  63  61 SE6       30.00S
DES MOINES     PTSUNNY   78  63  59 SE7       29.99S HX  80
6HR MIN TEMP:  72; 6HR MAX TEMP:  79;

GRINNELL*      MOSUNNY   77  62  60 CALM      30.03S
KNOXVILLE *    CLOUDY    77  63  61 S5        29.99F
MARSHALLTOWN   SUNNY     76  64  66 S8        30.00F
6HR MIN TEMP:  73; 6HR MAX TEMP:  79;

NEWTON *       SUNNY     77  61  57 S5        30.01S
PELLA *        CLOUDY    77  62  59 CALM      30.01F
PERRY *        FAIR      76  58  52 SE10      29.99S
$$

IAZ004>006-015-016-023>025-035-036-230100-
   NORTH CENTRAL IOWA

CITY           SKY/WX    TMP DP  RH WIND       PRES   REMARKS
ALGONA *       PTSUNNY   77  63  61 SE9       29.99S
CLARION *      PTSUNNY   79  61  53 S9        29.99F HX  80
ESTHERVILLE    CLOUDY    76  60  57 S10       29.98S
6HR MIN TEMP:  73; 6HR MAX TEMP:  78;

FORT DODGE *   CLOUDY    78  63  59 S5        29.99F HX  80
MASON CITY     MOSUNNY   78  58  49 SW9       30.01S
6HR MIN TEMP:  75; 6HR MAX TEMP:  80;

FOREST CITY *  CLOUDY    77  61  57 CALM      30.00F
WEBSTER CITY * CLOUDY    79  61  53 S7        29.97F HX  80
IOWA FALLS *   FAIR      78  63  59 SE9       30.01F
$$

IAZ007>011-017>019-026>030-037>042-050>054-066-230100-
   NORTHEAST IOWA

CITY           SKY/WX    TMP DP  RH WIND       PRES   REMARKS
CEDAR RAPIDS   FAIR      77  60  55 CALM      30.01F
6HR MIN TEMP:  73; 6HR MAX TEMP:  79;

CHARLES CITY * FAIR      75  59  57 E9        30.02F
DECORAH *      FAIR      70  59  68 CALM      30.04S
DUBUQUE        FAIR      70  58  65 CALM      30.05S
6HR MIN TEMP:  65; 6HR MAX TEMP:  72;

MONTICELLO *   FAIR      73  61  64 NE3       30.03F
OELWEIN *      FAIR      73  61  64 E5        30.04S
WATERLOO       FAIR      75  61  61 E6        30.01S
6HR MIN TEMP:  71; 6HR MAX TEMP:  78;

$$

IAZ064-065-067-068-078-230100-
   EAST CENTRAL IOWA

CITY           SKY/WX    TMP DP  RH WIND       PRES   REMARKS
DAVENPORT      FAIR      74  60  61 N6        30.05S
6HR MIN TEMP:  69; 6HR MAX TEMP:  76;

IOWA CITY      FAIR      78  60  53 CALM      30.03S
6HR MIN TEMP:  74; 6HR MAX TEMP:  80;

MUSCATINE *    FAIR      77  59  53 CALM      30.02S
QUAD CITIES    FAIR      75  61  61 NE5       30.02S
6HR MIN TEMP:  71; 6HR MAX TEMP:  78;

$$

IAZ062-063-075>077-085>089-095>099-230100-
   SOUTHEAST IOWA

CITY           SKY/WX    TMP DP  RH WIND       PRES   REMARKS
BURLINGTON     SUNNY     78  61  55 NE6       30.01S HX  80
6HR MIN TEMP:  75; 6HR MAX TEMP:  80;

FAIRFIELD *    SUNNY     79  61  53 CALM      30.01F HX  80
FORT MADISON * SUNNY     79  63  57 E5        30.02S HX  80
KEOKUK *       SUNNY     79  63  57 E3        30.00S HX  80
OSKALOOSA *    FAIR      78  61  55 CALM      30.01F
CENTERVILLE *    N/A     79  63  57 CALM      30.03S HX  80
OTTUMWA        SUNNY     80  60  50 CALM      30.00F HX  81
6HR MIN TEMP:  77; 6HR MAX TEMP:  81;

WASHINGTON *   MOSUNNY   79  63  57 E7        30.03S HX  80
$$

ABBREVIATIONS USED IN REMARKS
   TC - TEMPERATURES IN CELSIUS
  WCI - WIND CHILL INDEX
   HX - HEAT INDEX
  VSB - VISIBILITY
$$





USA.gov is the U.S. government's official web portal to all federal, state and local government web resources and services.